Regional Weather Roundup
Issued by NWS

Home | Current Version | Previous Version | Graphics & Text | Print | Product List | Glossary On
Versions: 1 2 3 4 5 6 7 8 9 10 11 12 13 14 15 16 17 18 19 20 21 22 23 24 25 26 27 28 29 30 31 32 33 34 35 36 37 38 39 40 41 42 43 44 45 46 47 48 49 50
000
ASUS43 KDTX 252210
RWRMI
MICHIGAN HOURLY REGIONAL WEATHER ROUNDUP
NATIONAL WEATHER SERVICE DETROIT/PONTIAC MI
ISSUED BY NATIONAL WEATHER SERVICE GRAND RAPIDS MI
600 PM EDT FRI MAY 25 2018

NOTE: "FAIR" INDICATES FEW OR NO CLOUDS BELOW 12,000 FEET WITH NO
SIGNIFICANT WEATHER AND/OR OBSTRUCTION TO VISIBILITY.

MIZ047>049-052>055-059>063-066>070-074>076-081>083-252300-
SOUTHEAST LOWER MICHIGAN

CITY           SKY/WX    TMP DP  RH WIND       PRES   REMARKS
ADRIAN         FAIR      84  49  29 W10       29.84F
ALMA           FAIR      84  58  39 SW7G16    29.81F
ANN ARBOR      FAIR      84  59  42 S9        29.83F
BAD AXE        FAIR      85  58  38 SW12G17   29.78F
DETROIT CITY   FAIR      85  55  35 S10       29.82F
DETROIT        FAIR      86  55  34 SW14      29.83F
FLINT          FAIR      85  57  38 W12       29.81F
GROSSE ILE     FAIR      79  55  43 SE8       29.83F
HILLSDALE      FAIR      82  52  34 S6        29.85F
HOWELL         FAIR      85  56  36 W9        29.83F

CITY           SKY/WX    TMP DP  RH WIND       PRES   REMARKS
JACKSON        FAIR      85  56  37 S8        29.83F
LANSING        FAIR      85  57  38 W10       29.82F
MASON          FAIR      86  53  32 SW6       29.82F
MONROE         FAIR      82  55  39 SE8       29.82F
MT. CLEMENS    MOSUNNY   82  61  49 S13       29.82F
PONTIAC        FAIR      85  57  38 SW9       29.81F
PORT HOPE        N/A     89  59  36 W10G20    29.75F
PORT HURON     FAIR      84  54  34 S12       29.81F
TRI CITIES     FAIR      88  59  37 W17       29.79F
YPSILANTI      FAIR      89  53  29 W8        29.83F
$$
MIZ043>046-050>051-056>058-064>065-071>073-077>080-252300-
SOUTHWEST LOWER MICHIGAN

CITY           SKY/WX    TMP DP  RH WIND       PRES   REMARKS
BATTLE CREEK   FAIR      85  59  41 SW9       29.83F
BENTON HARBOR  FAIR      84  57  39 W3        29.82F
BIG RAPIDS     FAIR      82  54  37 SW12      29.80S
COLDWATER      FAIR      87  42  20 W7        29.84F
HOLLAND        FAIR      83  61  47 SW7       29.82F
GRAND RAPIDS   PTSUNNY   84  60  44 W12       29.82F
KALAMAZOO      FAIR      85  58  39 S8        29.82F
MARSHALL       FAIR      85  51  31 SW5       29.83F
MOUNT PLEASANT FAIR      85  58  39 SW15      29.78F
MUSKEGON       PTSUNNY   79  59  50 S10       29.81F
STURGIS        FAIR      85  57  38 SW7       29.84S
$$
MIZ016>042-252300-
NORTHERN LOWER MICHIGAN

CITY           SKY/WX    TMP DP  RH WIND       PRES   REMARKS
ALPENA         PTSUNNY   87  63  44 SW10G18   29.72F
BEAVER ISLAND  LGT RAIN  62  58  87 CALM      29.75F
BELLAIRE       FAIR      85  58  40 SW5G17    29.74S
CADILLAC       FAIR      83  55  38 SW16G24   29.79S
CHARLEVOIX     FAIR      54  48  82 NW7       29.81R
HOUGHTON LAKE  FAIR      85  55  35 SW13G22   29.78F
MANISTEE       FAIR      85  63  47 SW9       29.76F
OSCODA         PTSUNNY   73  64  72 E6        29.74F
PELLSTON       FAIR      83  64  52 W16G22    29.75S
TRAVERSE CITY  PTSUNNY   89  61  38 W10G18    29.72F
LUDINGTON      FAIR      80  63  54 S14       29.77F
$$
MIZ007>008-015-252300-
EASTERN UPPER MICHIGAN

CITY           SKY/WX    TMP DP  RH WIND       PRES   REMARKS
KINROSS        FAIR      76  63  64 SW6       29.75R
MACKINAC ISLAN FAIR      68  58  69 W6        29.76S
NEWBERRY       LGT RAIN  67  66  97 CALM      29.75F
S. S. MARIE    FAIR      78  61  55 NW5       29.73R
$$
MIZ004>006-011>014-085-252300-
CENTRAL UPPER MICHIGAN

CITY           SKY/WX    TMP DP  RH WIND       PRES   REMARKS
MANISTIQUE     LGT RAIN  64  62  94 CALM      29.72S
ESCANABA       FAIR      68  63  84 SE10      29.71F
MENOMINEE      FAIR      87  59  38 W12G18    29.70F
SAWYER-GWINN   SUNNY     82  55  39 SW10G18   29.71F
$$
MIZ001>003-009>011-084-252300-
WESTERN UPPER MICHIGAN

CITY           SKY/WX    TMP DP  RH WIND       PRES   REMARKS
IRON MOUNTAIN  FAIR      83  60  45 SW9       29.69F
HOUGHTON       CLOUDY    80  62  54 S7        29.66F
COPPER HARBOR    N/A     56  49  77 VRB5      29.65F
IRONWOOD       FAIR      83  63  50 SW15      29.67
$$

ABBREVIATIONS USED IN REMARKS
   TC - TEMPERATURE IN CELSIUS
  WCI - WIND CHILL INDEX
   HX - HEAT INDEX
  VSB - VISIBILITY





USA.gov is the U.S. government's official web portal to all federal, state and local government web resources and services.